Time,TemperatureF,DewpointF,PressureIn,WindDirection,WindDirectionDegrees,WindSpeedMPH,WindSpeedGustMPH,Humidity,HourlyPrecipIn,Conditions,Clouds,dailyrainin,SoftwareType,DateUTC
2013-04-07 04:23:00,63.0,39.0,29.78,West,260,7.0,-999.0,41,-99.99,,,-99.99,,2013-04-07 04:23:00,
2013-04-07 04:32:00,63.0,39.0,29.78,West,270,8.0,-999.0,41,-99.99,,,-99.99,,2013-04-07 04:32:00,
2013-04-07 04:43:00,63.0,39.0,29.78,West,270,7.0,-999.0,41,-99.99,,,-99.99,,2013-04-07 04:43:00,
2013-04-07 04:53:00,61.0,39.0,29.79,West,270,6.0,-999.0,44,-99.99,,,-99.99,,2013-04-07 04:53:00,
2013-04-07 05:02:00,59.0,39.0,29.79,West,270,5.0,-999.0,47,-99.99,,,-99.99,,2013-04-07 05:02:00,
2013-04-07 05:12:00,59.0,39.0,29.79,West,270,5.0,-999.0,47,-99.99,,,-99.99,,2013-04-07 05:12:00,
2013-04-07 05:22:00,59.0,39.0,29.79,West,270,6.0,-999.0,47,-99.99,,,-99.99,,2013-04-07 05:22:00,
2013-04-07 05:33:00,59.0,39.0,29.79,West,280,5.0,-999.0,47,-99.99,,,-99.99,,2013-04-07 05:33:00,
2013-04-07 05:42:00,59.0,39.0,29.79,West,260,3.0,-999.0,47,-99.99,,,-99.99,,2013-04-07 05:42:00,
2013-04-07 05:52:00,59.0,39.0,29.80,WSW,240,3.0,-999.0,47,-99.99,,,-99.99,,2013-04-07 05:52:00,
2013-04-07 06:02:00,61.0,39.0,29.80,SW,230,5.0,-999.0,44,-99.99,,,-99.99,,2013-04-07 06:02:00,
2013-04-07 06:12:00,61.0,39.0,29.80,SW,230,5.0,-999.0,44,-99.99,,,-99.99,,2013-04-07 06:12:00,
2013-04-07 06:22:00,59.0,39.0,29.80,WSW,240,5.0,-999.0,47,-99.99,,,-99.99,,2013-04-07 06:22:00,
2013-04-07 06:32:00,57.0,39.0,29.80,WSW,240,3.0,-999.0,50,-99.99,,,-99.99,,2013-04-07 06:32:00,
2013-04-07 06:42:00,57.0,39.0,29.80,WSW,240,5.0,-999.0,50,-99.99,,,-99.99,,2013-04-07 06:42:00,
2013-04-07 06:52:00,57.0,39.0,29.81,WSW,240,5.0,-999.0,50,-99.99,,,-99.99,,2013-04-07 06:52:00,
2013-04-07 07:02:00,57.0,39.0,29.81,SW,230,5.0,-999.0,50,-99.99,,,-99.99,,2013-04-07 07:02:00,
2013-04-07 07:12:00,57.0,39.0,29.81,SW,230,5.0,-999.0,50,-99.99,,,-99.99,,2013-04-07 07:12:00,
2013-04-07 07:22:00,57.0,39.0,29.81,SW,220,6.0,-999.0,50,-99.99,,,-99.99,,2013-04-07 07:22:00,
2013-04-07 07:32:00,57.0,39.0,29.81,SW,230,3.0,-999.0,50,-99.99,,,-99.99,,2013-04-07 07:32:00,
2013-04-07 07:42:00,57.0,39.0,29.81,WSW,240,5.0,-999.0,50,-99.99,,,-99.99,,2013-04-07 07:42:00,
2013-04-07 07:52:00,57.0,39.0,29.82,WSW,240,6.0,-999.0,50,-99.99,,,-99.99,,2013-04-07 07:52:00,
2013-04-07 08:02:00,55.0,39.0,29.82,North,0,0.0,-999.0,54,-99.99,,,-99.99,,2013-04-07 08:02:00,
2013-04-07 08:12:00,55.0,39.0,29.82,North,0,0.0,-999.0,54,-99.99,,,-99.99,,2013-04-07 08:12:00,
2013-04-07 08:22:00,54.0,39.0,29.83,WNW,300,3.0,-999.0,58,-99.99,,,-99.99,,2013-04-07 08:22:00,
2013-04-07 08:32:00,54.0,39.0,29.83,NW,310,5.0,-999.0,58,-99.99,,,-99.99,,2013-04-07 08:32:00,
2013-04-07 08:42:00,54.0,39.0,29.83,North,0,0.0,-999.0,58,-99.99,,,-99.99,,2013-04-07 08:42:00,
2013-04-07 08:53:00,54.0,39.0,29.83,North,0,0.0,-999.0,58,-99.99,,,-99.99,,2013-04-07 08:53:00,
2013-04-07 09:02:00,54.0,39.0,29.83,North,0,0.0,-999.0,58,-99.99,,,-99.99,,2013-04-07 09:02:00,
2013-04-07 09:12:00,54.0,39.0,29.83,North,0,0.0,-999.0,58,-99.99,,,-99.99,,2013-04-07 09:12:00,
2013-04-07 09:22:00,54.0,39.0,29.84,NNW,340,3.0,-999.0,58,-99.99,,,-99.99,,2013-04-07 09:22:00,
2013-04-07 09:33:00,54.0,39.0,29.85,North,350,3.0,-999.0,58,-99.99,,,-99.99,,2013-04-07 09:33:00,
2013-04-07 09:43:00,54.0,39.0,29.85,North,0,0.0,-999.0,58,-99.99,,,-99.99,,2013-04-07 09:43:00,
2013-04-07 09:54:00,52.0,39.0,29.85,North,0,0.0,-999.0,61,-99.99,,,-99.99,,2013-04-07 09:54:00,
2013-04-07 10:03:00,52.0,39.0,29.86,North,360,3.0,-999.0,61,-99.99,,,-99.99,,2013-04-07 10:03:00,
2013-04-07 10:13:00,52.0,39.0,29.86,North,360,3.0,-999.0,61,-99.99,,,-99.99,,2013-04-07 10:13:00,
2013-04-07 10:22:00,54.0,39.0,29.87,NNE,20,3.0,-999.0,58,-99.99,,,-99.99,,2013-04-07 10:22:00,
2013-04-07 10:33:00,52.0,39.0,29.86,NNE,30,3.0,-999.0,61,-99.99,,,-99.99,,2013-04-07 10:33:00,
2013-04-07 10:42:00,52.0,39.0,29.87,NE,40,3.0,-999.0,61,-99.99,,,-99.99,,2013-04-07 10:42:00,
2013-04-07 10:54:00,52.0,39.0,29.87,North,0,0.0,-999.0,61,-99.99,,,-99.99,,2013-04-07 10:54:00,
2013-04-07 11:03:00,52.0,39.0,29.88,NE,40,3.0,-999.0,61,-99.99,,,-99.99,,2013-04-07 11:03:00,
2013-04-07 11:12:00,52.0,39.0,29.88,NE,40,3.0,-999.0,61,-99.99,,,-99.99,,2013-04-07 11:12:00,
2013-04-07 11:22:00,50.0,39.0,29.88,NE,40,3.0,-999.0,66,-99.99,,,-99.99,,2013-04-07 11:22:00,
2013-04-07 11:32:00,50.0,39.0,29.88,NE,40,3.0,-999.0,66,-99.99,,,-99.99,,2013-04-07 11:32:00,
2013-04-07 11:42:00,50.0,39.0,29.89,North,0,0.0,-999.0,66,-99.99,,,-99.99,,2013-04-07 11:42:00,
2013-04-07 11:53:00,50.0,39.0,29.89,North,0,0.0,-999.0,66,-99.99,,,-99.99,,2013-04-07 11:53:00,
2013-04-07 12:02:00,48.0,39.0,29.89,North,0,0.0,-999.0,70,-99.99,,,-99.99,,2013-04-07 12:02:00,
2013-04-07 12:12:00,48.0,39.0,29.89,North,0,0.0,-999.0,70,-99.99,,,-99.99,,2013-04-07 12:12:00,
2013-04-07 12:22:00,50.0,39.0,29.90,North,0,0.0,-999.0,66,-99.99,,,-99.99,,2013-04-07 12:22:00,
2013-04-07 12:33:00,50.0,39.0,29.90,North,0,0.0,-999.0,66,-99.99,,,-99.99,,2013-04-07 12:33:00,
2013-04-07 12:42:00,52.0,39.0,29.90,North,0,0.0,-999.0,61,-99.99,,,-99.99,,2013-04-07 12:42:00,
2013-04-07 12:53:00,52.0,39.0,29.90,North,0,0.0,-999.0,61,-99.99,,,-99.99,,2013-04-07 12:53:00,
2013-04-07 13:03:00,54.0,39.0,29.90,North,0,0.0,-999.0,58,-99.99,,,-99.99,,2013-04-07 13:03:00,
2013-04-07 13:13:00,54.0,39.0,29.90,North,0,0.0,-999.0,58,-99.99,,,-99.99,,2013-04-07 13:13:00,
2013-04-07 13:22:00,54.0,39.0,29.91,NE,50,3.0,-999.0,58,-99.99,,,-99.99,,2013-04-07 13:22:00,
2013-04-07 13:32:00,55.0,39.0,29.91,NE,40,3.0,-999.0,54,-99.99,,,-99.99,,2013-04-07 13:32:00,
2013-04-07 13:42:00,55.0,39.0,29.92,ENE,60,3.0,-999.0,54,-99.99,,,-99.99,,2013-04-07 13:42:00,
2013-04-07 13:53:00,57.0,39.0,29.92,ENE,70,3.0,-999.0,50,-99.99,,,-99.99,,2013-04-07 13:53:00,
2013-04-07 14:02:00,59.0,37.0,29.92,East,90,6.0,-999.0,44,-99.99,,,-99.99,,2013-04-07 14:02:00,
2013-04-07 14:12:00,59.0,37.0,29.92,East,90,6.0,-999.0,44,-99.99,,,-99.99,,2013-04-07 14:12:00,
2013-04-07 14:23:00,59.0,37.0,29.92,ENE,60,3.0,-999.0,44,-99.99,,,-99.99,,2013-04-07 14:23:00,
2013-04-07 14:32:00,59.0,36.0,29.92,ENE,70,6.0,-999.0,41,-99.99,,,-99.99,,2013-04-07 14:32:00,
2013-04-07 14:43:00,61.0,36.0,29.92,North,0,0.0,-999.0,38,-99.99,,,-99.99,,2013-04-07 14:43:00,
2013-04-07 14:54:00,63.0,34.0,29.92,East,100,5.0,-999.0,33,-99.99,,,-99.99,,2013-04-07 14:54:00,
2013-04-07 15:02:00,63.0,36.0,29.92,East,100,3.0,-999.0,36,-99.99,,,-99.99,,2013-04-07 15:02:00,
2013-04-07 15:12:00,63.0,36.0,29.92,East,100,3.0,-999.0,36,-99.99,,,-99.99,,2013-04-07 15:12:00,
2013-04-07 15:22:00,64.0,34.0,29.92,East,80,5.0,-999.0,31,-99.99,,,-99.99,,2013-04-07 15:22:00,
2013-04-07 15:33:00,66.0,34.0,29.92,East,80,7.0,-999.0,29,-99.99,,,-99.99,,2013-04-07 15:33:00,
2013-04-07 15:43:00,66.0,34.0,29.92,East,90,7.0,-999.0,29,-99.99,,,-99.99,,2013-04-07 15:43:00,
2013-04-07 15:55:00,66.0,36.0,29.92,ENE,60,3.0,-999.0,32,-99.99,,,-99.99,,2013-04-07 15:55:00,
2013-04-07 16:03:00,68.0,36.0,29.93,ESE,110,5.0,-999.0,30,-99.99,,,-99.99,,2013-04-07 16:03:00,
2013-04-07 16:13:00,68.0,36.0,29.93,ESE,110,5.0,-999.0,30,-99.99,,,-99.99,,2013-04-07 16:13:00,
2013-04-07 16:24:00,68.0,36.0,29.93,East,90,6.0,-999.0,30,-99.99,,,-99.99,,2013-04-07 16:24:00,
2013-04-07 16:33:00,70.0,36.0,29.93,East,90,6.0,-999.0,28,-99.99,,,-99.99,,2013-04-07 16:33:00,
2013-04-07 16:42:00,70.0,36.0,29.93,North,0,0.0,-999.0,28,-99.99,,,-99.99,,2013-04-07 16:42:00,
2013-04-07 16:54:00,70.0,36.0,29.93,SSE,150,3.0,-999.0,28,-99.99,,,-99.99,,2013-04-07 16:54:00,
2013-04-07 17:04:00,72.0,36.0,29.93,South,170,3.0,-999.0,26,-99.99,,,-99.99,,2013-04-07 17:04:00,
2013-04-07 17:13:00,72.0,36.0,29.93,South,170,3.0,-999.0,26,-99.99,,,-99.99,,2013-04-07 17:13:00,
2013-04-07 17:23:00,72.0,36.0,29.92,SE,130,3.0,-999.0,26,-99.99,,,-99.99,,2013-04-07 17:23:00,
2013-04-07 17:33:00,73.0,36.0,29.92,SSW,200,3.0,-999.0,25,-99.99,,,-99.99,,2013-04-07 17:33:00,
2013-04-07 17:42:00,73.0,36.0,29.91,South,180,3.0,-999.0,25,-99.99,,,-99.99,,2013-04-07 17:42:00,
2013-04-07 17:54:00,73.0,36.0,29.91,North,0,0.0,-999.0,25,-99.99,,,-99.99,,2013-04-07 17:54:00,
2013-04-07 18:02:00,73.0,36.0,29.91,North,0,0.0,-999.0,25,-99.99,,,-99.99,,2013-04-07 18:02:00,
2013-04-07 18:13:00,73.0,36.0,29.91,North,0,0.0,-999.0,25,-99.99,,,-99.99,,2013-04-07 18:13:00,
2013-04-07 18:22:00,75.0,34.0,29.90,South,180,5.0,-999.0,22,-99.99,,,-99.99,,2013-04-07 18:22:00,
2013-04-07 18:32:00,75.0,34.0,29.90,SE,130,6.0,-999.0,22,-99.99,,,-99.99,,2013-04-07 18:32:00,
2013-04-07 18:42:00,75.0,36.0,29.90,South,170,6.0,-999.0,23,-99.99,,,-99.99,,2013-04-07 18:42:00,
2013-04-07 18:53:00,75.0,34.0,29.90,SSE,160,3.0,-999.0,22,-99.99,,,-99.99,,2013-04-07 18:53:00,
2013-04-07 19:02:00,75.0,34.0,29.89,SSE,160,6.0,-999.0,22,-99.99,,,-99.99,,2013-04-07 19:02:00,
2013-04-07 19:12:00,75.0,34.0,29.89,SSE,160,6.0,-999.0,22,-99.99,,,-99.99,,2013-04-07 19:12:00,
2013-04-07 19:22:00,75.0,36.0,29.89,SE,140,5.0,-999.0,23,-99.99,,,-99.99,,2013-04-07 19:22:00,
2013-04-07 19:32:00,75.0,34.0,29.89,North,0,0.0,-999.0,22,-99.99,,,-99.99,,2013-04-07 19:32:00,
2013-04-07 19:42:00,75.0,36.0,29.88,South,170,5.0,-999.0,23,-99.99,,,-99.99,,2013-04-07 19:42:00,
2013-04-07 19:55:00,75.0,36.0,29.88,ESE,120,6.0,-999.0,23,-99.99,,,-99.99,,2013-04-07 19:55:00,
2013-04-07 20:02:00,75.0,36.0,29.88,SE,130,6.0,-999.0,23,-99.99,,,-99.99,,2013-04-07 20:02:00,
2013-04-07 20:13:00,75.0,36.0,29.88,SE,130,6.0,-999.0,23,-99.99,,,-99.99,,2013-04-07 20:13:00,
2013-04-07 20:22:00,75.0,36.0,29.87,SSE,160,6.0,-999.0,23,-99.99,,,-99.99,,2013-04-07 20:22:00,
2013-04-07 20:32:00,77.0,36.0,29.87,South,170,5.0,-999.0,22,-99.99,,,-99.99,,2013-04-07 20:32:00,
2013-04-07 20:43:00,77.0,36.0,29.87,SE,140,5.0,-999.0,22,-99.99,,,-99.99,,2013-04-07 20:43:00,
2013-04-07 20:54:00,77.0,34.0,29.86,North,0,0.0,-999.0,20,-99.99,,,-99.99,,2013-04-07 20:54:00,
2013-04-07 21:03:00,77.0,34.0,29.86,South,170,10.0,-999.0,20,-99.99,,,-99.99,,2013-04-07 21:03:00,
2013-04-07 21:13:00,77.0,34.0,29.86,South,170,10.0,-999.0,20,-99.99,,,-99.99,,2013-04-07 21:13:00,
2013-04-07 21:22:00,75.0,32.0,29.85,South,170,6.0,-999.0,20,-99.99,,,-99.99,,2013-04-07 21:22:00,
2013-04-07 21:34:00,75.0,32.0,29.85,SSE,160,3.0,-999.0,20,-99.99,,,-99.99,,2013-04-07 21:34:00,
2013-04-07 21:43:00,79.0,34.0,29.85,South,180,5.0,-999.0,19,-99.99,,,-99.99,,2013-04-07 21:43:00,
2013-04-07 21:55:00,79.0,34.0,29.85,SE,140,6.0,-999.0,19,-99.99,,,-99.99,,2013-04-07 21:55:00,
2013-04-07 22:03:00,79.0,32.0,29.84,SE,130,8.0,-999.0,18,-99.99,,,-99.99,,2013-04-07 22:03:00,
2013-04-07 22:13:00,79.0,32.0,29.84,SE,130,8.0,-999.0,18,-99.99,,,-99.99,,2013-04-07 22:13:00,
2013-04-07 22:23:00,77.0,32.0,29.83,SE,140,5.0,-999.0,19,-99.99,,,-99.99,,2013-04-07 22:23:00,
2013-04-07 22:33:00,79.0,34.0,29.83,ESE,120,6.0,-999.0,19,-99.99,,,-99.99,,2013-04-07 22:33:00,
2013-04-07 22:43:00,77.0,34.0,29.83,SE,130,6.0,-999.0,20,-99.99,,,-99.99,,2013-04-07 22:43:00,
2013-04-07 22:53:00,75.0,34.0,29.83,SE,140,7.0,-999.0,22,-99.99,,,-99.99,,2013-04-07 22:53:00,
2013-04-07 23:03:00,75.0,34.0,29.82,ESE,120,7.0,-999.0,22,-99.99,,,-99.99,,2013-04-07 23:03:00,
2013-04-07 23:12:00,75.0,34.0,29.82,ESE,120,7.0,-999.0,22,-99.99,,,-99.99,,2013-04-07 23:12:00,
2013-04-07 23:22:00,75.0,34.0,29.82,ESE,120,7.0,-999.0,22,-99.99,,,-99.99,,2013-04-07 23:22:00,
2013-04-07 23:32:00,75.0,34.0,29.82,ESE,110,5.0,-999.0,22,-99.99,,,-99.99,,2013-04-07 23:32:00,
2013-04-07 23:42:00,75.0,36.0,29.82,East,100,5.0,-999.0,23,-99.99,,,-99.99,,2013-04-07 23:42:00,
2013-04-07 23:53:00,75.0,36.0,29.81,East,100,8.0,-999.0,23,-99.99,,,-99.99,,2013-04-07 23:53:00,